Meteo Giornale » Osservazioni meteo Gran Bretagna » Belfast-Aldergrove

ore: 13:50 - Osservazioni Meteo Belfast-Aldergrove
Lat. 54° 39' N Lon. 6° 13' W Alt. 81 metri s.l.m.

sereno Europe/London

13 °C

Sereno

Temp. 24 Ore

7 °C

14 °C

Ovest/Sud-Ovest

16.7 Km/h

Dew point 7 °C

Umidità 66 %

Visibilità  10 Km

Il sole sorge alle ore 07:20

Il sole tramonta alle ore 19:10

Data e Ora Cielo e Fenomeni T °C DP °C Um. % Pres. hPa Vis. km Vento km/h
Oggi h: 13:50 sereno Sereno 13 7 66 1006 10 O/SO 16.7
Oggi h: 12:50 poco_nuvoloso Poco Nuvoloso 12 8 76 1007 10 SO 18.5
Oggi h: 12:20 molto_nuvoloso Molto Nuvoloso 12 8 76 1007 10 SO 14.8
Oggi h: 11:50 sereno Sereno 12 8 76 1007 10 S/SO 14.8
Oggi h: 11:20 poco_nuvoloso Poco Nuvoloso 11 8 81 1007 10 S/SO 13
Oggi h: 10:50 sereno Sereno 11 8 81 1007 10 S/SO 14.8
Oggi h: 10:20 sereno Sereno 10 8 87 1007 10 S/SO 16.7
Oggi h: 09:50 sereno Sereno 9 7 87 1007 10 S/SO 16.7
Oggi h: 09:20 sereno Sereno 9 7 87 1007 10 S 14.8
Oggi h: 08:50 sereno Sereno 8 6 87 1007 10 S 14.8
Oggi h: 08:20 sereno Sereno 8 6 87 1007 10 S/SO 14.8
Oggi h: 07:50 sereno Sereno 8 6 87 1007 10 S/SO 18.5
Oggi h: 07:20 sereno Sereno 7 6 93 1007 10 S 14.8
Oggi h: 06:50 sereno Sereno 7 6 93 1008 10 S 14.8
Oggi h: 06:20 sereno Sereno 7 6 93 1008 10 S 14.8
Oggi h: 05:50 sereno Sereno 7 6 93 1008 10 S/SO 13
Oggi h: 04:50 sereno Sereno 8 6 87 1008 10 S/SO 18.5
Oggi h: 04:20 sereno Sereno 8 6 87 1008 10 S/SO 16.7
Oggi h: 03:50 sereno Sereno 8 6 87 1008 10 S/SO 16.7
Oggi h: 03:20 sereno Sereno 8 6 87 1008 10 S/SO 18.5
Oggi h: 02:50 sereno Sereno 8 6 87 1008 10 S/SO 20.3
Oggi h: 02:20 sereno Sereno 8 6 87 1008 10 SO 20.3
Oggi h: 01:50 sereno Sereno 8 6 87 1008 10 S/SO 16.7
Oggi h: 01:20 sereno Sereno 8 6 87 1008 10 S/SO 16.7
Oggi h: 00:50 sereno Sereno 8 6 87 1008 10 S/SO 13
Oggi h: 00:20 sereno Sereno 8 6 87 1008 10 S/SO 16.7
Ieri h: 23:50 sereno Sereno 8 6 87 1008 10 S/SO 13
Ieri h: 23:20 sereno Sereno 9 7 87 1008 10 S/SO 14.8
Ieri h: 22:50 sereno Sereno 9 7 87 1008 10 S/SO 18.5
Ieri h: 22:20 sereno Sereno 9 7 87 1007 10 S/SO 16.7
Ieri h: 21:50 sereno Sereno 9 7 87 1007 10 S/SO 16.7
Ieri h: 21:20 sereno Sereno 9 7 87 1007 10 S/SO 14.8
Ieri h: 20:50 sereno Sereno 10 7 81 1006 10 S/SO 16.7
Ieri h: 20:20 sereno Sereno 9 7 87 1006 10 S/SO 13
Ieri h: 19:50 sereno Sereno 10 6 76 1006 10 S/SO 14.8
Ieri h: 19:20 sereno Sereno 11 6 71 1006 10 S/SO 16.7
Ieri h: 18:50 sereno Sereno 11 6 71 1005 10 S/SO 18.5
Ieri h: 18:20 sereno Sereno 12 7 71 1005 10 SO 20.3
Ieri h: 17:50 sereno Sereno 12 7 71 1005 10 SO 22.2
Ieri h: 17:20 sereno Sereno 13 7 66 1005 10 SO 24
Ieri h: 16:50 poco_nuvoloso Poco Nuvoloso 13 8 71 1005 10 S/SO 14.8
Ieri h: 16:20 sereno Sereno 13 8 71 1004 10 O/SO 22.2
Ieri h: 15:50 poco_nuvoloso Poco Nuvoloso 12 6 66 1004 10 O/SO 20.3
Ieri h: 15:20 coperto_pioggia Pioggia Debole 12 7 71 1004 10 O 31.5
Ieri h: 14:50 poco_nuvoloso Poco Nuvoloso 14 7 62 1003 10 O 35.2